FENGYUN 3G (56232 NORAD) Tracking and Keplerian Element Data

This shows tracking and keplerian element data for the satellite.

Feedback or suggestion? Click here.




ElementValue
Catalog56232
NameFENGYUN 3G
Epoch Orbit317
Epoch Day126.47049976
Epoch Year2023
RAAN92.5303
Inclination49.9995
Eccentricity0.0005187
Argument of Perigee6.9571
Mean Anonmoly90.6874
Mean Motion15.5313601
Decay Rate0.00033273
L11 56232U 23055A 23126.47049976 .00033273 00000+0 52527-3 0 9994
L22 56232 49.9995 92.5303 0005187 6.9571 90.6874 15.53136010 3176



Live tracking and technical data element details for FENGYUN 3G (NORAD 56232). FENGYUN 3G can be tracked NOW for your location showing map with azimuth and elevation plus other details from your city location.







IsCatalogInMostPopularTable: catalog: 56232, numindb: 13
Update: records affected: 1



GetName: 56232 FENGYUN 3G

Hit Count: updated at: Wed, 07 Jun 2023 09:03:19 GMT